Regional Weather Roundup
Issued by NWS

Home | Current Version | Previous Version | Text Only | Print | Product List | Glossary On
Versions: 1 2 3 4 5 6 7 8 9 10 11 12 13 14 15 16 17 18 19 20 21 22 23 24 25 26 27 28
000
ASUS45 KTFX 090210
RWRMT
MONTANA REGIONAL WEATHER ROUNDUP
NATIONAL WEATHER SERVICE GREAT FALLS MT
700 PM MST THU DEC 08 2016

NOTE: "FAIR" INDICATES FEW OR NO CLOUDS BELOW 12000 FEET WITH NO
SIGNIFICANT WEATHER AND/OR OBSTRUCTIONS TO VISIBILITY.

MTZ001>007-043-090300-
WEST OF THE DIVIDE

CITY           SKY/WX    TMP DP  RH WIND       PRES   REMARKS
KALISPELL      CLEAR      7  -3  64 N12       30.22S WCI  -8
MISSOULA       MOCLDY    14   6  70 CALM      30.16F
BUTTE          CLOUDY     7  -1  70 S10       30.03F WCI  -8
MULLAN PASS    CLOUDY     0  -3  87 VRB5      29.89F
ANACONDA         N/A     10   0  61 CALM      30.04F
DEER LODGE       N/A      3  -4  72 W6        30.10F WCI  -8
EUREKA           N/A     -6  -9  84 CALM      30.30F
HAMILTON         N/A     16   5  62 CALM      30.11F
LIBBY            N/A     12   3  67 CALM      30.25F
RONAN            N/A     13   4  67 CALM      30.19F
$$

MTZ008-052>055-090300-
SOUTHWEST MONTANA

CITY           SKY/WX    TMP DP  RH WIND       PRES   REMARKS
BOZEMAN        CLOUDY     6   0  76 CALM      30.17R
DILLON         CLOUDY     8   0  69 E7        30.05F WCI  -3
W YELLOWSTONE  LGT SNOW   5   1  85 CALM      30.05F
ENNIS          CLOUDY     7   1  78 N6        30.10S WCI  -3
THREE FORKS      N/A      6 -46   7 CALM      30.15F
TWIN BRIDGES     N/A      9  -5  53 N7        30.06F WCI  -2
$$

MTZ009-010-012-014-046-048-049-054-090300-
EAST SLOPES AND CENTRAL MONTANA

CITY           SKY/WX    TMP DP  RH WIND       PRES   REMARKS
CUT BANK       CLOUDY    -4  -8  83 E6        30.32F WCI -16
GREAT FALLS    CLOUDY    -4  -8  83 N5        30.33F
MALMSTROM AFB  CLOUDY    -3  -6  86 NE6       30.37F WCI -15
HELENA         CLOUDY     1  -8  66 NW8       30.26F WCI -13
AUGUSTA        FLURRIES  -4  -8  85 NE5       30.25F
BOWMANS CRNR   FLURRIES  -5  -9  85 N6        30.24F WCI -18
CHOTEAU          N/A     -2  -6  84 MISG      30.33F
FAIRFIELD      FLURRIES  -3  -8  78 E6        30.30F WCI -15
POWER          FLURRIES  -6 -10  81 E5        30.32F
RAYNESFORD     LGT SNOW  -4  -8  81 W3        30.29F
ULM            FLURRIES  -4  -8  84 E2G31     30.34F
$$

MTZ011-013-016-021-045-047-050-051-090300-
NORTH CENTRAL MONTANA

CITY           SKY/WX    TMP DP  RH WIND       PRES   REMARKS
HAVRE          CLOUDY     0  -7  72 NE7       30.48F WCI -13
LEWISTOWN      CLOUDY    -2  -7  79 E7        30.27F WCI -15
N BAR RANCH      N/A     -4  -9  77 SE6       30.27F WCI -16
CHINOOK          N/A      0  -8  71 E3        30.52F
DENTON         FLURRIES   0  -3  85 MISG      30.31F
GEYSER         FLURRIES  -2  -5  84 E5        30.28F
GRASS RANGE      N/A     -2  -6  84 NE5       30.29F
JUDITH GAP     FLURRIES   2  -3  81 S10       30.21F WCI -14
ROY              N/A     -3  -7  86 MISG      30.34F
STANFORD       FLURRIES  -3  -6  87 E7        30.25S WCI -16
WINIFRED         N/A     -4  -7  87 MISG      30.33S
$$

MTZ017>020-022>027-061-062-090300-
NORTHEAST MONTANA

CITY           SKY/WX    TMP DP  RH WIND       PRES   REMARKS
GLASGOW        CLEAR     -4 -10  75 NE9       30.52F WCI -20
JORDAN           N/A     -2  -7  79 E8        30.48F WCI -17
SIDNEY         CLOUDY   -10 -15  78 NW6       30.59F WCI -23
WOLF POINT     CLOUDY    -7 -14  71 CALM      30.58F
PLENTYWOOD       N/A     -8 -13  77 NW6       30.55F WCI -21
POPLAR           N/A     -8 -13  77 N3        30.59F
SCOBEY           N/A    -11 -22  57 CALM      30.47
$$

MTZ028>42-056>058-090300-
SOUTHCENTRAL AND SOUTHEAST MONTANA

CITY           SKY/WX    TMP DP  RH WIND       PRES   REMARKS
BAKER          CLOUDY   -13 -18  78 SE3       30.46F
BILLINGS       CLOUDY     3  -3  76 NE7       30.30F WCI  -9
LIVINGSTON     CLOUDY     2  -3  80 E10       30.18F WCI -14
MILES CITY     CLEAR      0  -7  72 NE8       30.47F WCI -14
BIG TIMBER     CLOUDY     3   0  85 CALM      30.24F
FORSYTH          N/A      1  -6  71 E6        30.44F WCI -10
HARLOWTON      CLOUDY     4  -2  77 E9        30.25S WCI -10
LAUREL           N/A      4  -7  60 N5        30.24
ROUNDUP          N/A      2 -10  57 NE5       30.23F
$$

REGIONAL REPORTS...DAKOTAS

CITY           SKY/WX    TMP DP  RH WIND       PRES   REMARKS
WILLISTON      CLOUDY    -8 -14  74 CALM      30.59F
MINOT          PTCLDY    -2  -8  76 W13       30.58S WCI -20
DICKINSON      CLOUDY   -10 -16  74 W3        30.49F
BEACH            N/A    -11 -17  77 CALM      30.52F
CROSBY           N/A     -8 -11  84 W10       30.60F WCI -26
TIOGA            N/A    -11 -13  92 NW8       30.56F WCI -28
WATFORD CITY     N/A     -9 -13  84 SW3       30.58F
BISMARCK       CLOUDY    -2  -8  76 W5        30.62S
GRAND FORKS    CLOUDY    11   4  73 NW12      30.58F WCI  -3
FARGO          CLOUDY     7   0  73 W13       30.59S WCI  -9
BUFFALO SD       N/A     -5  -9  83 NE8       30.37F WCI -20
RAPID CITY     CLOUDY     0  -7  72 CALM      30.45F
$$

REGIONAL REPORTS...WYOMING/IDAHO/WASHINGTON

CITY           SKY/WX    TMP DP  RH WIND       PRES   REMARKS
GILLETTE       CLOUDY    -3  -7  82 S3        30.27F
SHERIDAN       CLOUDY    -5 -11  75 CALM      30.27F
BUFFALO WY     CLOUDY     1  -6  72 S3        30.19F
CODY           CLOUDY    -7 -11  83 CALM      30.15F
YELLOWSTONE LA   N/A      4   1  88 NW3       30.01S
IDAHO FALLS    LGT SNOW  17  13  84 N8        30.12F FOG     WCI   7
SALMON         CLOUDY    12   7  79 CALM      30.12F
BOISE          LGT SNOW  26  23  88 SE12      30.07S FOG     WCI  16
SPOKANE        CLOUDY    20   5  52 NE15      30.08F WCI   6
$$

REGIONAL REPORTS...ALBERTA

CITY           SKY/WX    TMP DP  RH WIND       PRES   REMARKS
EDMONTON       CLOUDY    -8 -15  71 E3        30.57F
CALGARY        MOCLDY    -6 -11  77 SE8       30.37F WCI -21
LETHBRIDGE     FLURRIES  -6  -9  84 S6        30.44F WCI -18
MEDICINE HAT   PTCLDY   -15 -18  84 SW2       30.55S
WATERTON GATE    N/A     -8 -13  77 N3          N/A
CARDSTON         N/A    -15 -20  76 SW5         N/A
MILK RIVER       N/A     -6  -9  84 NE5         N/A
$$

REGIONAL REPORTS...SASKATCHEWAN

CITY           SKY/WX    TMP DP  RH WIND       PRES   REMARKS
SWIFT CURRENT  FLURRIES  -8 -11  84 NW6       30.48F WCI -21
REGINA         PTCLDY    -9 -15  77 NW5       30.58S
SASKATOON      CRYSTALS -11 -17  77 NW6       30.64F WCI -25
CYPRESS HILLS    N/A    -17 -24  70 E2          N/A
VAL MARIE        N/A    -22 -27  76 NE3         N/A
ROCKGLEN         N/A     -6  -9  84 N3          N/A
ASSINIBOIA       N/A     -4  -9  77 NE3         N/A
$$




USA.gov is the U.S. government's official web portal to all federal, state and local government web resources and services.